Starlink 34062

operational
NORAD ID: 64021 Int'l Des: 2025-101 Owner: SPXS Country: US Constellation: starlink
LEOCIRCULAR

About Starlink 34062

Description loading...

Live Position

Loading 3D Globe...

Upcoming Passes

Altitude History

Altitude vs Time

uPlot chart will show altitude changes over time

Two-Line Element Set

1 64021U 25101AD 26062.32116277 .00029113 00000-0 10626-2 0 9990
2 64021 43.0050 33.7117 0002074 253.9600 106.1023 15.27602380 46082
Epoch: Mar 3, 2026 • Age: 27 hours

Current Status

Altitude 482.5 km
Velocity 7.63 km/s
Sub-Earth Point 18.30°N, 21.49°W
Launch Date May 14, 2025
Age 0.8 years
Type internet

Technical Details

Classification Payload
Mass 575.00 kg
Dry Mass 530.00 kg
Total Mass 575.00 kg
Length 0.30 m
Diameter 4.10 m
Span 29.00 m
Shape Box + pan
Manufacturer SPXS
Bus Type Starlink V2MO
Phase Status In Orbit
Owner/State SPXS/US

Large Constellations

Loading constellations...